Weather History for PABV - March, 2013

Change the Weather History Date:

Sunday, March 31, 2013

  Actual Average Record
Temperature  
Mean Temperature 34 °F -  
Max Temperature 42 °F 34 °F 50 °F (1987)
Min Temperature 26 °F 19 °F -5 °F (2004)
Degree Days  
Heating Degree Days 31    
Moisture  
Dew Point 30 °F    
Average Humidity 84    
Maximum Humidity 100    
Minimum Humidity 57    
Precipitation  
Precipitation 0.00 in - - ()
Sea Level Pressure  
Sea Level Pressure 30.21 in    
Wind  
Wind Speed 2 mph (SW)    
Max Wind Speed 7 mph    
Max Gust Speed -    
Visibility 8 miles    
Events      
Averages and records for this station are not official NWS values.
T = Trace of Precipitation, MM = Missing Value Source: NWS Daily Summary

Daily Weather History Graph

Daily Weather History Graph

Search for Another Location

Airport or City:

Trip Planner

Search our weather history database for the weather conditions in past years. The results will help you decide how hot, cold, wet, or windy it might be!

Date:

Astronomy

Mar. 31, 2013 Rise Set
Actual Time 7:22 AM AKDT 8:42 PM AKDT
Civil Twilight 6:37 AM AKDT 9:28 PM AKDT
Nautical Twilight 5:41 AM AKDT 10:24 PM AKDT
Astronomical Twilight 4:34 AM AKDT 11:33 PM AKDT
Moon 2:16 AM AKDT (3/31) 8:59 AM AKDT (3/31)
Length of Visible Light 14h 50m
Length of Day
13h 20m
Waning Gibbous, 76% of the Moon is Illuminated
Mar 31
Waning Gibbous
Apr 2
Last Quarter
Apr 10
New
Apr 18
First Quarter
Apr 25
Full

Hourly Weather History & Observations

Time (AKDT) Temp. Windchill Dew Point Humidity Pressure Visibility Wind Dir Wind Speed Gust Speed Precip Events Conditions
12:16 AM 35.6 °F 29.9 °F 33.8 °F 93% 30.24 in 10.0 mi NE 6.9 mph - N/A   Overcast
12:36 AM 33.8 °F - 33.8 °F 100% 30.24 in 10.0 mi Calm Calm - N/A   Scattered Clouds
12:56 AM 33.8 °F - 33.8 °F 100% 30.24 in 10.0 mi Calm Calm - N/A   Mostly Cloudy
1:16 AM 33.8 °F - 32.0 °F 93% 30.24 in 10.0 mi Calm Calm - N/A   Overcast
1:36 AM 33.8 °F - 32.0 °F 93% 30.24 in 10.0 mi Calm Calm - N/A   Overcast
1:56 AM 33.8 °F - 32.0 °F 93% 30.24 in 10.0 mi Calm Calm - N/A   Overcast
2:16 AM 32.0 °F - 32.0 °F 100% 30.24 in 8.0 mi Calm Calm - N/A   Overcast
2:36 AM 32.0 °F - 32.0 °F 100% 30.24 in 10.0 mi Calm Calm - N/A   Overcast
2:56 AM 32.0 °F - 32.0 °F 100% 30.25 in 10.0 mi Calm Calm - N/A   Overcast
3:16 AM 32.0 °F - 32.0 °F 100% 30.25 in 10.0 mi Calm Calm - N/A   Mostly Cloudy
3:36 AM 30.2 °F - 30.2 °F 100% 30.25 in 10.0 mi Calm Calm - N/A   Partly Cloudy
3:56 AM 30.2 °F - 30.2 °F 100% 30.25 in 10.0 mi Calm Calm - N/A   Partly Cloudy
4:16 AM 30.2 °F 26.7 °F 30.2 °F 100% 30.25 in 10.0 mi South 3.5 mph - N/A   Mostly Cloudy
4:36 AM 30.2 °F - 30.2 °F 100% 30.25 in 5.0 mi Calm Calm - N/A   Mostly Cloudy
4:56 AM 30.2 °F - 30.2 °F 100% 30.25 in 7.0 mi Calm Calm - N/A   Overcast
5:16 AM 30.2 °F - 28.4 °F 93% 30.25 in 10.0 mi Calm Calm - N/A   Scattered Clouds
5:36 AM 28.4 °F - 28.4 °F 100% 30.25 in 4.0 mi Calm Calm - N/A   Partly Cloudy
5:56 AM 28.4 °F - 28.4 °F 100% 30.25 in 9.0 mi Calm Calm - N/A   Mostly Cloudy
6:16 AM 28.4 °F - 26.6 °F 93% 30.25 in 9.0 mi Calm Calm - N/A   Scattered Clouds
6:36 AM 28.4 °F - 28.4 °F 100% 30.25 in 10.0 mi Calm Calm - N/A   Partly Cloudy
6:56 AM 28.4 °F - 28.4 °F 100% 30.25 in 0.8 mi Calm Calm - N/A   Overcast
7:16 AM 28.4 °F - 28.4 °F 100% 30.25 in 0.2 mi Calm Calm - N/A   Overcast
7:36 AM 28.4 °F - 28.4 °F 100% 30.24 in 0.2 mi Calm Calm - N/A   Overcast
7:56 AM 28.4 °F - 28.4 °F 100% 30.25 in 0.5 mi Calm Calm - N/A   Mostly Cloudy
8:16 AM 26.6 °F - 24.8 °F 93% 30.24 in 6.0 mi Calm Calm - N/A   Partly Cloudy
8:36 AM 26.6 °F - 26.6 °F 100% 30.25 in 0.5 mi Calm Calm - N/A   Overcast
8:56 AM 28.4 °F - 28.4 °F 100% 30.25 in 0.2 mi Calm Calm - N/A   Overcast
9:16 AM 28.4 °F - 26.6 °F 93% 30.25 in 0.2 mi Calm Calm - N/A   Overcast
9:36 AM 28.4 °F 24.6 °F 28.4 °F 100% 30.25 in 0.2 mi SE 3.5 mph - N/A   Overcast
9:56 AM 30.2 °F - 30.2 °F 100% 30.25 in 5.0 mi Calm Calm - N/A   Mostly Cloudy
10:16 AM 30.2 °F - 30.2 °F 100% 30.25 in 5.0 mi Calm Calm - N/A   Overcast
10:36 AM 32.0 °F - 30.2 °F 93% 30.25 in 7.0 mi Calm Calm - N/A   Mostly Cloudy
10:56 AM 32.0 °F - 30.2 °F 93% 30.25 in 10.0 mi Calm Calm - N/A   Overcast
11:16 AM 33.8 °F - 32.0 °F 93% 30.25 in 10.0 mi Calm Calm - N/A   Overcast
11:36 AM 33.8 °F 30.8 °F 30.2 °F 87% 30.25 in 10.0 mi West 3.5 mph - N/A   Mostly Cloudy
11:56 AM 35.6 °F 32.8 °F 30.2 °F 81% 30.25 in 10.0 mi West 3.5 mph - N/A   Scattered Clouds
12:16 PM 33.8 °F 29.6 °F 30.2 °F 87% 30.25 in 10.0 mi West 4.6 mph - N/A   Clear
12:36 PM 35.6 °F 32.8 °F 28.4 °F 75% 30.25 in 10.0 mi West 3.5 mph - N/A   Clear
12:56 PM 35.6 °F 31.7 °F 26.6 °F 70% 30.24 in 10.0 mi West 4.6 mph - N/A   Clear
1:16 PM 35.6 °F 32.8 °F 28.4 °F 75% 30.24 in 10.0 mi West 3.5 mph - N/A   Clear
1:36 PM 35.6 °F 31.7 °F 28.4 °F 75% 30.23 in 10.0 mi West 4.6 mph - N/A   Clear
1:56 PM 37.4 °F - 30.2 °F 75% 30.23 in 10.0 mi Calm Calm - N/A   Clear
2:16 PM 41.0 °F - 30.2 °F 65% 30.22 in 10.0 mi Calm Calm - N/A   Clear
2:36 PM 41.0 °F 39.0 °F 28.4 °F 61% 30.22 in 10.0 mi WSW 3.5 mph - N/A   Clear
2:56 PM 41.0 °F 39.0 °F 28.4 °F 61% 30.21 in 10.0 mi WSW 3.5 mph - N/A   Clear
3:16 PM 41.0 °F - 30.2 °F 65% 30.20 in 10.0 mi Calm Calm - N/A   Clear
3:36 PM 42.8 °F - 30.2 °F 61% 30.19 in 10.0 mi Calm Calm - N/A   Clear
3:56 PM 42.8 °F - 30.2 °F 61% 30.19 in 10.0 mi Calm Calm - N/A   Clear
4:16 PM 42.8 °F 41.1 °F 30.2 °F 61% 30.18 in 10.0 mi West 3.5 mph - N/A   Clear
4:36 PM 42.8 °F 41.1 °F 28.4 °F 57% 30.17 in 10.0 mi West 3.5 mph - N/A   Clear
4:56 PM 42.8 °F - 30.2 °F 61% 30.17 in 10.0 mi Calm Calm - N/A   Clear
5:16 PM 42.8 °F 41.1 °F 30.2 °F 61% 30.16 in 10.0 mi West 3.5 mph - N/A   Clear
5:36 PM 42.8 °F - 30.2 °F 61% 30.16 in 10.0 mi Calm Calm - N/A   Clear
5:56 PM 41.0 °F - 32.0 °F 70% 30.15 in 10.0 mi Calm Calm - N/A   Partly Cloudy
6:16 PM 39.2 °F - 33.8 °F 81% 30.15 in 10.0 mi Calm Calm - N/A   Partly Cloudy
6:36 PM 41.0 °F - 33.8 °F 76% 30.15 in 10.0 mi Calm Calm - N/A   Clear
6:56 PM 42.8 °F - 30.2 °F 61% 30.14 in 10.0 mi Calm Calm - N/A   Scattered Clouds
7:16 PM 41.0 °F 39.0 °F 33.8 °F 76% 30.14 in 10.0 mi WSW 3.5 mph - N/A   Partly Cloudy
7:36 PM 41.0 °F - 32.0 °F 70% 30.13 in 10.0 mi Calm Calm - N/A   Clear
7:56 PM 39.2 °F - 30.2 °F 70% 30.13 in 10.0 mi Calm Calm - N/A   Clear
8:16 PM 39.2 °F - 30.2 °F 70% 30.13 in 10.0 mi Calm Calm - N/A   Clear
8:36 PM 39.2 °F - 28.4 °F 65% 30.12 in 10.0 mi Calm Calm - N/A   Scattered Clouds
8:56 PM 39.2 °F - 28.4 °F 65% 30.12 in 10.0 mi Calm Calm - N/A   Overcast
9:16 PM 37.4 °F 33.8 °F 30.2 °F 75% 30.12 in 10.0 mi WSW 4.6 mph - N/A   Overcast
9:36 PM 37.4 °F 32.1 °F 30.2 °F 75% 30.12 in 10.0 mi South 6.9 mph - N/A   Overcast
9:56 PM 37.4 °F 32.1 °F 30.2 °F 75% 30.12 in 10.0 mi South 6.9 mph - N/A   Scattered Clouds
10:16 PM 37.4 °F 32.8 °F 30.2 °F 75% 30.11 in 10.0 mi South 5.8 mph - N/A   Clear
10:36 PM 35.6 °F 31.7 °F 30.2 °F 81% 30.11 in 10.0 mi South 4.6 mph - N/A   Clear
10:56 PM 35.6 °F 31.7 °F 30.2 °F 81% 30.11 in 10.0 mi South 4.6 mph - N/A   Mostly Cloudy
11:16 PM 33.8 °F 29.6 °F 30.2 °F 87% 30.11 in 10.0 mi South 4.6 mph - N/A   Mostly Cloudy
11:36 PM 33.8 °F 30.8 °F 30.2 °F 87% 30.10 in 10.0 mi South 3.5 mph - N/A   Partly Cloudy